Погода в Ивделе

Погода в Ивделе : погода сейчас, прогноз погоды и архив. Всё, что Вы хотите узнать о погоде в Ивделе!

Хотите узнать прогноз погоды в Ивделе? Тогда Вам сюда: Погода в Ивделе

Поиск расширенной информации на нашем сайте:

Другие новости

Новости СМИ2

Главная страница сайта

Новости сайта

02.10.2013

Напоминаем, что на нашем новом сайте вы можете получить высокодетализированные прогнозы погоды по пунктам России, СНГ и мира (включающие важные для авиации метеовеличины, такие как направление и скорость ветра, видимость, явления погоды, количество и форма облачности, нижняя и верхняя граница облачности), а также ознакомиться с разнообразными материалами по авиационной метеорологии и подборкой полезных ссылок на эту тему.

Сайт Метеоцентр.Азия посвящён разработке технологий оптимизации авиаметеорологического обслуживания, включая проектирование и перспективное создание нескольких автоматизированных авиаметеорологических систем:
- система выпуска высокодетальных прогностических карт явлений погоды для нижнего воздушного пространства по России и ближнему зарубежью;
- система верификации прогнозов TAF (выпускаемых синоптиками официальных АМСГ РФ и ближнего зарубежья) и AUTOTAF (выпускаемых сайтом Метеоцентр.Азия) - выявление ошибок, онлайн-сопоставление с фактической погодой METAR, автоматическое внесение коррективов в прогнозы при резком отклонении фактической погоды от прогноза, подсчёт оправдываемости прогнозов по элементам и в целом;
- система обработки, анализа и отображения авиаметеорологической информации для применения провайдерами метеорологической информации.

Рекомендуем: Солнцезащитные очки интернет-магазин купить солнцезащитные очки.

Погода в Ивделе - сегодня

Время (UTC), дата Ветер
(°,м/с) 
Видим.   Явления Облачность Т
(°С)
Тd
(°С)
f(%) Тe
(°С)
Pmin
(гПа)
dP
(гПа)
Po
(мм)
O2
(г/м3)
Тmin Tmax R s Состояние
почвы
18 27.03.17 160 (Ю) 10 км    9/3 1000 м средняя, верхняя 
[Sc|Ac trans|Ci fib]
-0.8 -5.8 69 -3  996.4  -0.1  739  299           
21 27.03.17 160 (Ю) 10 км    9/4 1000 м средняя, верхняя 
[Sc|Ac trans|Ci fib]
-1.4 -5.8 72 -3  995.6  -0.9  738  299           
00 28.03.17 140 (ЮВ) 10 км    9/6 1000 м средняя, верхняя 
[Sc|Ac trans|Ci fib]
-2.3 -5.4 79 -4  995  -0.6  737  300           
03 28.03.17 150 (ЮВ) 20000 м    9/0 средняя, верхняя 
[Ac lent|Cs]
-1.6 -5.9 72 -3  994.7  -0.3  737  299  -3.4      41  равномерный
мокрый или
старый снег
100% 
06 28.03.17 190 (Ю) 5-10{10}  20000 м    10/3 1000 м верхняя 
[Sc|Cs]
+1.4 -6.8 54 -1  993.8  -0.8  737  296           
09 28.03.17 170 (Ю) 4{10}  20000 м    10/10 1260 м 
[Sc]
+2.3 -6.2 53 992.7  -1  736  295           
12 28.03.17 180 (Ю) 5-10{10}  20000 м    10/10 1000 м 
[Sc]
+2.9 -6.7 49 991.3  -1.4  735  294           
15 28.03.17 160 (Ю) 3{10}  18000 м  слаб. ливневой снег  10/10 600 м кучево-дожд. 
[Cb cap]
+0.1 -2.8 81 -2  990.7  -0.7  734  296    +3  0.0     
18 28.03.17 150 (ЮВ) 10 км  слаб. ливневой снег  10/10 540 м кучево-дожд. 
[Cb cap]
-0.7 -2.4 88 989.2  -1.5  733  296           
21 28.03.17 тихо ()   4000 м  слаб. ливневой снег  10/10 420 м кучево-дожд. 
[Cb cap]
-0.9 -2 92 -1  987.8  -1.4  732  296           
00 29.03.17 170 (Ю) 2000 м  {ливн. осадки}  10/10 600 м кучево-дожд. 
[Cb cap]
-2.1 -2.9 94 -2  987.5  -0.4  732  297           
03 29.03.17 120 (ЮВ) 16000 м  слаб. ливневой снег  10/10 500 м кучево-дожд. 
[Cb cap]
-2.3 -3.2 94 -2  988.1  0.6  732  298  -2.5    0.2  41  равномерный
сухой снег
100% 
06 29.03.17 240 (ЮЗ) 20000 м  {ливн. осадки}  9/9 600 м кучево-дожд. 
[Cb cap]
+1.9 -4.5 62 +1  988.4  0.5  733  294           
09 29.03.17 230 (ЮЗ) 35000 м  слаб. крупа{ливн. осадки}  9/9 600 м кучево-дожд. 
[Cb cap]
+2.3 -5.9 55 +1  989.8  1.4  734  294           
12 29.03.17 270 (З) 20000 м  {ливн. осадки}  9/9 600 м кучево-дожд. 
[Cb cap]
+3.2 -6.5 49 +1  991.1  1.4  735  293           
15 29.03.17 300 (СЗ) 20000 м    8/6 1000 м средняя 
[Sc|Ac trans]
+0.6 -7.7 54 992.9  1.6  736  297    +4.3       
18 29.03.17 тихо ()   10 км    3/3 1200 м 
[Sc]
-3.3 -7.5 73 -3  994.4  1.3  737  301           
21 29.03.17 тихо ()   10 км    4/4 1000 м 
[Sc]
-5.8 -8.4 82 -6  994.3  -0.2  737  304           
00 30.03.17 350 (С) 10 км    10/10 600 м кучево-дожд. 
[Cb cap]
-4.5 -9.4 69 -4  993.7  -0.5  736  303           
03 30.03.17 010 (С) 20000 м    9/9 600 м кучево-дожд. 
[Cb cap]
-4.5 -10.1 65 -7  993.4  -0.3  736  303  -7.3      41  равномерный
мокрый или
старый снег
100% 
06 30.03.17 010 (С) 20000 м    9/3 1000 м средняя, верхняя 
[Sc|Ac trans|Ci fib]
-1.1 -11 47 -2  992.7  -0.6  736  299           
09 30.03.17 020 (С) 20000 м    10/0 верхняя 
[Cs]
+1.4 -13.4 32 991.7  -0.8  735  296           
12 30.03.17 310 (СЗ) 20000 м    10/3 1000 м верхняя 
[Sc|Ci fib]
+1.4 -13 33 -1  992.5  0.7  736  296           
15 30.03.17 320 (СЗ) 4{12}  20000 м    8/0 верхняя 
[Ci fib]
-1.9 -11.2 49 -5  995.7  3.1  738  300    +2.4       
18 30.03.17 310 (СЗ) 3{10}  10 км    6/0 верхняя 
[Ci fib]
-2.9 -9.9 58 -5  997.6  1.8  739  302           
Время (UTC), дата Ветер
(°,м/с) 
Видим.   Явления Облачность Т
(°С)
Тd
(°С)
f(%) Тe
(°С)
Pmin
(гПа)
dP
(гПа)
Po
(мм)
O2
(г/м3)
Тmin Tmax R s Состояние
почвы

Для получения пояснительной информации подведите курсор к названию столбца.

ПОГОДА в Ивделе - архив

Всё, что Вы хотите узнать о погоде в Ивделе - удобно и подробно!

Выберите нужную дату (начиная с 1 января 2015* года) и нажмите кнопку "Найти".
Будут отображены архивные сводки погоды по пункту Ивдель, начиная с указанной даты.


Отображать данные в формате CSV (для использования в таблицах Excel)


Внимание! Наш архив погоды предназначен исключительно для личного некоммерческого использования в познавательных целях. Если Вам необходимы официальные справки о состоянии погоды (для производственных, юридических, коммерческих и т.п. целей), обращайтесь в органы Росгидромета.

*Примечание: данная дата относится к архиву по метеостанциям СССР (Россия, СНГ, Балтия).
Архив по метеостанциям Зарубежной Европы и Азии (кроме Китая) хранится 10 дней, по другим регионам земного шара (Китай, Африка, Америка, Австралия, Океания) - 1 день.

Ивдель - район местоположения метеостанции


Название, широта, долгота, высота метеостанции:
Ивдель 60.7°ш. 60.4°д. 95 м над ур. моря [Российская Федерация]

Дополнительная информация

В oтличие oт бoльшинства пoгoдных сайтoв мы публикуем пoдрoбную метеoинфoрмацию в детальнoм прoфессиoнальнoм фoрмате.

Характеристики температуры и влажнoсти вoздуха измеряются на высoте 2 м в тени вдали oт зданий и деревьев.
Скoрoсть ветра измеряется на высoте 10 м (на урoвне рoста челoвека скoрoсть ветра ниже в 1.5-2 раза). Если метеoстанция нахoдится в гoрoде или в лесу, тo скoрoсть ветра занижена на 2-4 м/с пo сравнению с oткрытым местoм. Скoрoсть ветра над акватoриями крупных рек и oзёр, а также на вершинах хoлмoв на 2-5 м/с выше, чем в oбычных услoвиях.
Атмoсфернoе давление в разных тoчках местнoсти мoжет значительнo oтличаться oт давления на метеoстанции, в зависимoсти oт услoвий рельефа (при пoдъёме на 10 м давление пoнижается примернo на 1 мм рт.ст.).